QPF
0.00 0.00 0.00 0.00 0.00 0.00 0.01 0.01 0.00 0.00 0.00 0.01 0.01 0.01 0.01 0.01 0.01 0.01 0.02 0.04 0.02 0.01 0.01 0.01 0.01 0.01 0.01 0.02 0.01 0.01 0.01 0.01 0.02 0.02 0.02 0.01 0.02 0.02 0.01 0.01 0.02 0.02 0.02 0.01
0.00 0.00 0.00 0.00 0.00 0.00 0.01 0.01 0.01 0.00 0.00 0.00 0.00 0.01 0.01 0.01 0.02 0.03 0.03 0.03 0.02 0.01 0.00 0.00 0.00 0.01 0.01 0.01 0.01 0.01 0.01 0.01 0.01 0.02 0.03 0.03 0.03 0.03 0.03 0.02 0.03 0.03 0.02 0.03
0.00 0.00 0.00 0.00 0.00 0.00 0.01 0.01 0.01 0.01 0.01 0.00 0.01 0.01 0.02 0.02 0.02 0.03 0.03 0.04 0.04 0.03 0.02 0.01 0.00 0.01 0.01 0.01 0.01 0.01 0.02 0.02 0.02 0.03 0.03 0.03 0.03 0.04 0.05 0.05 0.05 0.04 0.05 0.05
0.00 0.01 0.01 0.00 0.00 0.00 0.01 0.01 0.01 0.01 0.01 0.01 0.01 0.01 0.02 0.02 0.02 0.02 0.02 0.03 0.03 0.03 0.02 0.01 0.01 0.01 0.01 0.01 0.01 0.01 0.03 0.03 0.04 0.05 0.05 0.06 0.07 0.07 0.07 0.06 0.06 0.06 0.05 0.04
0.00 0.00 0.00 0.01 0.00 0.00 0.00 0.01 0.01 0.01 0.01 0.01 0.02 0.03 0.03 0.02 0.02 0.03 0.03 0.03 0.03 0.03 0.02 0.03 0.02 0.01 0.01 0.01 0.01 0.01 0.02 0.02 0.04 0.06 0.07 0.08 0.08 0.07 0.05 0.05 0.05 0.05 0.05 0.04
0.00 0.01 0.01 0.00 0.00 0.00 0.01 0.01 0.01 0.01 0.01 0.01 0.01 0.02 0.02 0.02 0.02 0.03 0.06 0.05 0.05 0.03 0.02 0.02 0.01 0.01 0.01 0.00 0.00 0.00 0.01 0.02 0.04 0.05 0.06 0.06 0.06 0.05 0.04 0.04 0.04 0.04 0.04 0.03
0.01 0.01 0.00 0.00 0.00 0.00 0.01 0.01 0.00 0.00 0.01 0.01 0.01 0.01 0.01 0.01 0.03 0.03 0.03 0.04 0.04 0.02 0.01 0.01 0.01 0.01 0.01 0.01 0.01 0.01 0.02 0.03 0.06 0.07 0.07 0.09 0.09 0.07 0.06 0.05 0.04 0.03 0.03 0.03
0.01 0.02 0.01 0.00 0.00 0.01 0.01 0.01 0.00 0.00 0.01 0.03 0.04 0.02 0.01 0.01 0.02 0.03 0.03 0.03 0.02 0.02 0.01 0.01 0.01 0.01 0.01 0.01 0.01 0.01 0.03 0.06 0.07 0.07 0.07 0.07 0.06 0.06 0.06 0.05 0.04 0.04 0.04 0.03
0.01 0.01 0.00 0.00 0.00 0.00 0.00 0.00 0.00 0.00 0.01 0.04 0.06 0.04 0.02 0.01 0.01 0.03 0.02 0.02 0.01 0.01 0.01 0.01 0.01 0.01 0.01 0.01 0.01 0.02 0.02 0.03 0.03 0.03 0.03 0.03 0.03 0.04 0.03 0.03 0.03 0.03 0.04 0.04
0.02 0.01 0.00 0.00 0.00 0.01 0.01 0.01 0.00 0.00 0.00 0.01 0.02 0.02 0.01 0.01 0.01 0.01 0.01 0.01 0.01 0.01 0.01 0.01 0.01 0.01 0.01 0.01 0.02 0.02 0.02 0.03 0.03 0.03 0.04 0.03 0.03 0.03 0.03 0.04 0.04 0.03 0.03 0.03
0.02 0.02 0.02 0.01 0.01 0.01 0.01 0.01 0.00 0.00 0.00 0.01 0.01 0.02 0.02 0.01 0.01 0.01 0.01 0.00 0.00 0.00 0.01 0.01 0.01 0.01 0.01 0.01 0.02 0.03 0.03 0.03 0.03 0.03 0.03 0.04 0.03 0.03 0.04 0.05 0.06 0.05 0.04 0.04
0.03 0.02 0.02 0.01 0.01 0.02 0.01 0.01 0.01 0.01 0.00 0.01 0.01 0.01 0.01 0.01 0.00 0.00 0.00 0.00 0.00 0.01 0.01 0.01 0.01 0.02 0.02 0.02 0.02 0.02 0.02 0.02 0.02 0.02 0.03 0.03 0.04 0.04 0.05 0.05 0.06 0.07 0.07 0.07
0.02 0.02 0.02 0.02 0.02 0.02 0.02 0.01 0.00 0.01 0.01 0.01 0.01 0.01 0.00 0.00 0.00 0.00 0.01 0.00 0.01 0.01 0.02 0.03 0.02 0.02 0.03 0.03 0.03 0.03 0.03 0.03 0.03 0.03 0.03 0.04 0.05 0.05 0.06 0.06 0.06 0.07 0.07 0.06
0.02 0.02 0.03 0.03 0.03 0.03 0.03 0.03 0.02 0.02 0.01 0.01 0.01 0.01 0.00 0.00 0.01 0.01 0.01 0.01 0.02 0.03 0.03 0.03 0.03 0.03 0.04 0.03 0.04 0.04 0.04 0.03 0.02 0.02 0.03 0.03 0.04 0.05 0.06 0.07 0.08 0.08 0.06 0.04
0.03 0.02 0.03 0.03 0.03 0.04 0.04 0.03 0.02 0.02 0.02 0.01 0.01 0.01 0.01 0.01 0.01 0.01 0.01 0.01 0.02 0.03 0.04 0.04 0.04 0.04 0.04 0.04 0.04 0.04 0.03 0.03 0.03 0.03 0.03 0.02 0.03 0.04 0.05 0.06 0.08 0.08 0.06 0.04
0.03 0.03 0.02 0.02 0.02 0.03 0.04 0.03 0.02 0.02 0.02 0.02 0.01 0.01 0.01 0.00 0.01 0.01 0.01 0.01 0.02 0.04 0.06 0.07 0.07 0.06 0.05 0.05 0.04 0.04 0.03 0.02 0.02 0.03 0.03 0.02 0.02 0.02 0.02 0.02 0.02 0.02 0.03 0.03
0.02 0.01 0.01 0.02 0.02 0.02 0.03 0.03 0.02 0.02 0.02 0.02 0.02 0.02 0.01 0.01 0.01 0.01 0.01 0.01 0.02 0.02 0.04 0.05 0.05 0.05 0.04 0.04 0.04 0.03 0.03 0.03 0.03 0.03 0.03 0.03 0.03 0.03 0.02 0.01 0.01 0.01 0.02 0.01
0.01 0.01 0.01 0.01 0.02 0.02 0.02 0.02 0.03 0.02 0.02 0.02 0.02 0.02 0.01 0.01 0.01 0.01 0.01 0.01 0.01 0.01 0.01 0.01 0.02 0.03 0.03 0.04 0.03 0.03 0.03 0.03 0.03 0.03 0.03 0.03 0.03 0.03 0.02 0.02 0.01 0.01 0.00 0.00
0.02 0.03 0.02 0.02 0.02 0.03 0.04 0.03 0.05 0.04 0.02 0.02 0.02 0.02 0.01 0.01 0.01 0.01 0.01 0.01 0.01 0.01 0.01 0.01 0.01 0.01 0.01 0.02 0.02 0.03 0.03 0.03 0.03 0.03 0.02 0.03 0.03 0.03 0.03 0.03 0.02 0.02 0.01 0.01
0.04 0.04 0.03 0.02 0.01 0.03 0.06 0.06 0.06 0.07 0.04 0.03 0.03 0.02 0.01 0.01 0.01 0.01 0.01 0.01 0.01 0.01 0.01 0.01 0.00 0.00 0.00 0.01 0.02 0.02 0.02 0.02 0.02 0.02 0.02 0.02 0.02 0.02 0.02 0.02 0.03 0.04 0.04 0.03
0.04 0.05 0.05 0.04 0.02 0.03 0.04 0.06 0.08 0.08 0.07 0.06 0.05 0.03 0.02 0.02 0.01 0.01 0.01 0.01 0.01 0.01 0.01 0.02 0.01 0.01 0.01 0.01 0.02 0.02 0.02 0.01 0.01 0.02 0.01 0.01 0.01 0.01 0.02 0.03 0.05 0.05 0.03 0.02
0.03 0.04 0.04 0.04 0.03 0.02 0.02 0.03 0.04 0.06 0.07 0.07 0.06 0.04 0.04 0.03 0.03 0.02 0.02 0.02 0.01 0.02 0.02 0.02 0.02 0.02 0.01 0.01 0.01 0.01 0.01 0.01 0.02 0.02 0.02 0.01 0.01 0.01 0.01 0.02 0.03 0.02 0.02 0.02
0.03 0.03 0.02 0.02 0.02 0.02 0.02 0.02 0.02 0.02 0.03 0.03 0.03 0.03 0.02 0.02 0.02 0.03 0.03 0.02 0.02 0.02 0.03 0.03 0.02 0.02 0.01 0.01 0.01 0.00 0.01 0.01 0.02 0.02 0.02 0.01 0.01 0.01 0.01 0.01 0.02 0.02 0.02 0.02
0.03 0.03 0.02 0.02 0.02 0.02 0.02 0.02 0.02 0.02 0.02 0.02 0.01 0.01 0.01 0.02 0.02 0.02 0.02 0.02 0.02 0.03 0.03 0.03 0.03 0.02 0.01 0.01 0.01 0.01 0.01 0.01 0.01 0.01 0.01 0.01 0.01 0.01 0.01 0.01 0.01 0.01 0.01 0.01
0.02 0.02 0.02 0.02 0.02 0.02 0.02 0.02 0.02 0.02 0.01 0.01 0.01 0.02 0.03 0.03 0.02 0.02 0.02 0.02 0.02 0.03 0.03 0.03 0.03 0.02 0.01 0.01 0.01 0.01 0.01 0.01 0.01 0.01 0.01 0.01 0.01 0.02 0.02 0.02 0.02 0.02 0.02 0.01
0.02 0.02 0.02 0.02 0.02 0.02 0.02 0.01 0.01 0.01 0.01 0.01 0.01 0.01 0.01 0.01 0.01 0.01 0.02 0.02 0.03 0.03 0.03 0.02 0.02 0.01 0.01 0.01 0.01 0.01 0.01 0.01 0.01 0.01 0.01 0.01 0.01 0.02 0.02 0.02 0.02 0.02 0.02 0.02
0.02 0.02 0.02 0.02 0.02 0.02 0.01 0.01 0.01 0.01 0.01 0.01 0.01 0.01 0.01 0.00 0.01 0.01 0.01 0.01 0.02 0.02 0.02 0.01 0.01 0.01 0.01 0.01 0.01 0.01 0.01 0.01 0.01 0.02 0.02 0.01 0.01 0.01 0.02 0.02 0.02 0.02 0.02 0.01
MSLP
1009.82 1010.03 1010.26 1010.51 1010.76 1010.99 1011.18 1011.27 1011.27 1011.17 1010.97 1010.72 1010.45 1010.20 1010.02 1009.93 1009.91 1009.97 1010.07 1010.18 1010.26 1010.28 1010.22 1010.11 1009.95 1009.76 1009.57 1009.42 1009.31 1009.24 1009.21 1009.19 1009.18 1009.15 1009.08 1008.98 1008.84 1008.68 1008.52 1008.37 1008.23 1008.12 1008.04 1007.96
1010.03 1010.26 1010.48 1010.69 1010.90 1011.07 1011.21 1011.27 1011.26 1011.18 1011.03 1010.85 1010.66 1010.49 1010.38 1010.34 1010.35 1010.42 1010.51 1010.60 1010.65 1010.65 1010.59 1010.46 1010.30 1010.11 1009.93 1009.76 1009.63 1009.52 1009.44 1009.37 1009.30 1009.21 1009.10 1008.96 1008.82 1008.66 1008.53 1008.41 1008.31 1008.25 1008.20 1008.16
1010.31 1010.54 1010.75 1010.93 1011.09 1011.21 1011.30 1011.33 1011.31 1011.24 1011.13 1011.00 1010.88 1010.78 1010.72 1010.70 1010.73 1010.78 1010.84 1010.88 1010.89 1010.85 1010.77 1010.64 1010.48 1010.31 1010.14 1009.99 1009.86 1009.74 1009.63 1009.52 1009.39 1009.25 1009.09 1008.92 1008.75 1008.59 1008.46 1008.36 1008.30 1008.27 1008.27 1008.27
1010.63 1010.85 1011.02 1011.15 1011.25 1011.31 1011.34 1011.34 1011.30 1011.24 1011.16 1011.08 1011.02 1010.97 1010.94 1010.95 1010.97 1010.99 1011.01 1011.00 1010.96 1010.88 1010.77 1010.64 1010.50 1010.35 1010.22 1010.10 1009.99 1009.88 1009.77 1009.64 1009.48 1009.29 1009.09 1008.87 1008.66 1008.48 1008.34 1008.24 1008.19 1008.19 1008.21 1008.24
1010.91 1011.09 1011.21 1011.27 1011.30 1011.29 1011.25 1011.20 1011.15 1011.09 1011.04 1011.00 1010.98 1010.99 1011.00 1011.02 1011.04 1011.05 1011.02 1010.97 1010.88 1010.77 1010.64 1010.51 1010.38 1010.27 1010.18 1010.11 1010.04 1009.97 1009.87 1009.73 1009.55 1009.34 1009.09 1008.82 1008.57 1008.35 1008.18 1008.07 1008.02 1008.02 1008.06 1008.11
1011.11 1011.22 1011.26 1011.24 1011.18 1011.09 1010.98 1010.88 1010.80 1010.74 1010.72 1010.72 1010.76 1010.82 1010.88 1010.93 1010.96 1010.96 1010.92 1010.83 1010.71 1010.57 1010.43 1010.30 1010.19 1010.11 1010.07 1010.05 1010.03 1010.00 1009.93 1009.81 1009.62 1009.38 1009.10 1008.80 1008.50 1008.24 1008.03 1007.89 1007.82 1007.81 1007.85 1007.91
1011.17 1011.20 1011.15 1011.03 1010.88 1010.71 1010.54 1010.39 1010.28 1010.23 1010.23 1010.28 1010.37 1010.49 1010.61 1010.71 1010.78 1010.79 1010.75 1010.66 1010.52 1010.37 1010.21 1010.08 1009.98 1009.94 1009.93 1009.95 1009.98 1009.98 1009.94 1009.84 1009.66 1009.42 1009.12 1008.79 1008.46 1008.16 1007.91 1007.74 1007.65 1007.62 1007.65 1007.71
1011.08 1011.02 1010.89 1010.69 1010.46 1010.22 1009.99 1009.80 1009.67 1009.62 1009.65 1009.75 1009.91 1010.09 1010.29 1010.45 1010.57 1010.62 1010.60 1010.52 1010.38 1010.22 1010.05 1009.91 1009.82 1009.78 1009.79 1009.83 1009.88 1009.91 1009.90 1009.81 1009.65 1009.41 1009.11 1008.77 1008.42 1008.11 1007.84 1007.65 1007.54 1007.50 1007.52 1007.57
1010.86 1010.73 1010.53 1010.27 1009.98 1009.69 1009.43 1009.22 1009.09 1009.05 1009.11 1009.26 1009.48 1009.74 1010.00 1010.24 1010.42 1010.52 1010.54 1010.47 1010.34 1010.18 1010.00 1009.85 1009.73 1009.67 1009.67 1009.70 1009.75 1009.78 1009.77 1009.70 1009.55 1009.33 1009.04 1008.71 1008.37 1008.06 1007.80 1007.61 1007.49 1007.45 1007.47 1007.52
1010.54 1010.38 1010.15 1009.87 1009.56 1009.25 1008.98 1008.77 1008.65 1008.63 1008.73 1008.92 1009.19 1009.52 1009.85 1010.15 1010.39 1010.55 1010.61 1010.57 1010.45 1010.28 1010.08 1009.89 1009.74 1009.63 1009.57 1009.56 1009.57 1009.58 1009.56 1009.48 1009.34 1009.13 1008.87 1008.57 1008.26 1007.98 1007.75 1007.58 1007.48 1007.46 1007.49 1007.55
1010.20 1010.04 1009.82 1009.56 1009.27 1008.98 1008.73 1008.55 1008.45 1008.46 1008.59 1008.82 1009.13 1009.50 1009.88 1010.24 1010.53 1010.73 1010.82 1010.81 1010.69 1010.50 1010.27 1010.04 1009.82 1009.64 1009.51 1009.42 1009.36 1009.31 1009.25 1009.15 1009.01 1008.81 1008.58 1008.32 1008.06 1007.83 1007.64 1007.52 1007.46 1007.47 1007.52 1007.60
1009.90 1009.78 1009.61 1009.40 1009.17 1008.94 1008.74 1008.60 1008.54 1008.58 1008.73 1008.98 1009.31 1009.70 1010.11 1010.49 1010.81 1011.03 1011.14 1011.13 1011.01 1010.80 1010.53 1010.23 1009.94 1009.67 1009.45 1009.26 1009.11 1008.99 1008.86 1008.72 1008.56 1008.38 1008.17 1007.95 1007.74 1007.56 1007.44 1007.37 1007.37 1007.41 1007.50 1007.61
1009.70 1009.64 1009.54 1009.42 1009.28 1009.13 1008.99 1008.91 1008.89 1008.95 1009.11 1009.36 1009.69 1010.07 1010.47 1010.84 1011.16 1011.38 1011.49 1011.47 1011.33 1011.09 1010.78 1010.42 1010.05 1009.69 1009.36 1009.08 1008.83 1008.62 1008.42 1008.24 1008.05 1007.86 1007.66 1007.48 1007.31 1007.19 1007.12 1007.11 1007.15 1007.24 1007.36 1007.48
1009.60 1009.62 1009.63 1009.60 1009.55 1009.49 1009.44 1009.40 1009.42 1009.49 1009.64 1009.87 1010.17 1010.51 1010.87 1011.21 1011.49 1011.68 1011.76 1011.72 1011.56 1011.29 1010.93 1010.52 1010.09 1009.65 1009.24 1008.86 1008.53 1008.23 1007.97 1007.73 1007.51 1007.30 1007.11 1006.94 1006.81 1006.72 1006.69 1006.71 1006.78 1006.90 1007.04 1007.18
1009.63 1009.74 1009.83 1009.90 1009.95 1009.97 1009.98 1010.00 1010.04 1010.11 1010.24 1010.43 1010.67 1010.94 1011.23 1011.50 1011.72 1011.86 1011.90 1011.82 1011.63 1011.33 1010.94 1010.49 1010.01 1009.53 1009.05 1008.62 1008.22 1007.86 1007.54 1007.25 1007.00 1006.77 1006.57 1006.40 1006.27 1006.20 1006.17 1006.20 1006.28 1006.40 1006.54 1006.68
1009.76 1009.94 1010.12 1010.27 1010.40 1010.49 1010.56 1010.61 1010.65 1010.71 1010.80 1010.93 1011.09 1011.28 1011.47 1011.65 1011.79 1011.86 1011.84 1011.72 1011.49 1011.17 1010.76 1010.30 1009.80 1009.29 1008.79 1008.33 1007.89 1007.50 1007.15 1006.83 1006.55 1006.30 1006.08 1005.89 1005.75 1005.65 1005.61 1005.61 1005.66 1005.76 1005.88 1006.00
1009.97 1010.21 1010.45 1010.66 1010.85 1010.99 1011.09 1011.15 1011.19 1011.22 1011.26 1011.31 1011.38 1011.47 1011.56 1011.64 1011.68 1011.66 1011.58 1011.41 1011.15 1010.81 1010.40 1009.94 1009.45 1008.96 1008.47 1008.01 1007.57 1007.18 1006.82 1006.49 1006.19 1005.92 1005.67 1005.45 1005.27 1005.13 1005.03 1004.99 1004.99 1005.03 1005.10 1005.18
1010.24 1010.51 1010.78 1011.03 1011.25 1011.42 1011.53 1011.59 1011.61 1011.60 1011.58 1011.55 1011.53 1011.52 1011.50 1011.47 1011.41 1011.31 1011.15 1010.93 1010.65 1010.30 1009.90 1009.46 1009.00 1008.54 1008.09 1007.66 1007.26 1006.89 1006.54 1006.22 1005.92 1005.63 1005.35 1005.10 1004.86 1004.66 1004.49 1004.37 1004.29 1004.26 1004.27 1004.30
1010.53 1010.81 1011.10 1011.36 1011.58 1011.75 1011.85 1011.90 1011.89 1011.84 1011.76 1011.66 1011.55 1011.44 1011.32 1011.19 1011.03 1010.85 1010.62 1010.36 1010.04 1009.69 1009.30 1008.89 1008.48 1008.07 1007.67 1007.30 1006.95 1006.62 1006.30 1006.00 1005.70 1005.40 1005.10 1004.80 1004.51 1004.24 1003.99 1003.79 1003.62 1003.51 1003.44 1003.41
1010.82 1011.10 1011.37 1011.62 1011.83 1011.98 1012.06 1012.08 1012.04 1011.95 1011.82 1011.66 1011.47 1011.28 1011.07 1010.85 1010.61 1010.35 1010.06 1009.75 1009.41 1009.06 1008.68 1008.31 1007.94 1007.58 1007.24 1006.93 1006.63 1006.34 1006.07 1005.78 1005.49 1005.18 1004.86 1004.53 1004.18 1003.85 1003.53 1003.24 1003.00 1002.80 1002.66 1002.58
1011.10 1011.35 1011.59 1011.81 1011.99 1012.11 1012.16 1012.15 1012.08 1011.95 1011.77 1011.56 1011.31 1011.05 1010.77 1010.47 1010.17 1009.85 1009.51 1009.17 1008.81 1008.45 1008.09 1007.74 1007.41 1007.10 1006.81 1006.54 1006.29 1006.04 1005.78 1005.52 1005.23 1004.92 1004.58 1004.22 1003.83 1003.45 1003.07 1002.72 1002.41 1002.15 1001.96 1001.83
1011.35 1011.56 1011.76 1011.93 1012.07 1012.15 1012.16 1012.11 1012.00 1011.84 1011.62 1011.37 1011.08 1010.76 1010.43 1010.09 1009.73 1009.37 1008.99 1008.62 1008.25 1007.89 1007.54 1007.22 1006.91 1006.62 1006.36 1006.12 1005.89 1005.66 1005.42 1005.16 1004.87 1004.55 1004.19 1003.81 1003.40 1002.98 1002.58 1002.19 1001.84 1001.55 1001.32 1001.17
1011.54 1011.70 1011.85 1011.97 1012.05 1012.08 1012.06 1011.97 1011.83 1011.63 1011.38 1011.09 1010.77 1010.42 1010.05 1009.67 1009.28 1008.89 1008.50 1008.11 1007.74 1007.38 1007.03 1006.71 1006.41 1006.14 1005.88 1005.64 1005.41 1005.17 1004.92 1004.65 1004.34 1004.01 1003.64 1003.25 1002.83 1002.41 1002.00 1001.61 1001.26 1000.97 1000.74 1000.59
1011.67 1011.78 1011.86 1011.93 1011.95 1011.93 1011.86 1011.73 1011.54 1011.31 1011.03 1010.71 1010.37 1009.99 1009.61 1009.21 1008.80 1008.40 1008.00 1007.61 1007.24 1006.88 1006.53 1006.21 1005.91 1005.62 1005.35 1005.09 1004.83 1004.56 1004.27 1003.97 1003.64 1003.28 1002.90 1002.51 1002.10 1001.70 1001.31 1000.95 1000.63 1000.37 1000.18 1000.06
1011.72 1011.77 1011.80 1011.81 1011.77 1011.70 1011.57 1011.40 1011.17 1010.90 1010.59 1010.25 1009.88 1009.49 1009.09 1008.68 1008.27 1007.86 1007.47 1007.08 1006.71 1006.36 1006.01 1005.69 1005.37 1005.06 1004.75 1004.45 1004.13 1003.81 1003.48 1003.12 1002.76 1002.37 1001.98 1001.59 1001.20 1000.83 1000.49 1000.19 999.94 999.74 999.62 999.56
1011.69 1011.69 1011.67 1011.62 1011.53 1011.40 1011.22 1011.00 1010.73 1010.42 1010.08 1009.71 1009.31 1008.91 1008.49 1008.08 1007.67 1007.28 1006.89 1006.52 1006.16 1005.81 1005.47 1005.12 1004.78 1004.44 1004.09 1003.73 1003.36 1002.97 1002.57 1002.16 1001.74 1001.33 1000.92 1000.54 1000.18 999.85 999.57 999.35 999.18 999.07 999.04 999.07
1011.57 1011.53 1011.47 1011.37 1011.24 1011.06 1010.84 1010.57 1010.26 1009.91 1009.53 1009.13 1008.71 1008.29 1007.87 1007.45 1007.05 1006.66 1006.29 1005.93 1005.58 1005.24 1004.90 1004.54 1004.18 1003.81 1003.41 1002.99 1002.55 1002.10 1001.63 1001.16 1000.70 1000.25 999.83 999.44 999.11 998.84 998.62 998.48 998.40 998.39 998.46 998.59
Thickness
5788 5794 5796 5791 5790 5792 5791 5794 5789 5794 5797 5802 5806 5808 5809 5809 5808 5806 5804 5804 5802 5800 5798 5796 5794 5792 5789 5787 5786 5783 5779 5777 5773 5770 5767 5764 5761 5758 5756 5754 5752 5749 5747 5745
5776 5786 5788 5784 5788 5790 5789 5791 5792 5793 5793 5805 5808 5807 5803 5802 5801 5799 5798 5797 5797 5794 5792 5790 5788 5786 5784 5782 5780 5777 5773 5771 5768 5765 5761 5758 5756 5753 5750 5748 5745 5743 5740 5738
5767 5778 5777 5770 5784 5788 5786 5791 5790 5785 5789 5799 5795 5795 5794 5794 5794 5794 5793 5792 5790 5789 5787 5785 5784 5782 5778 5777 5775 5771 5767 5764 5761 5759 5756 5754 5752 5748 5744 5742 5739 5736 5734 5731
5762 5760 5745 5776 5795 5793 5786 5786 5793 5791 5792 5793 5792 5793 5793 5793 5789 5788 5787 5786 5786 5786 5784 5783 5781 5779 5775 5773 5769 5764 5760 5757 5755 5752 5750 5747 5744 5741 5738 5736 5733 5729 5726 5724
5754 5752 5758 5771 5782 5784 5778 5776 5789 5787 5787 5788 5791 5788 5784 5787 5787 5783 5783 5782 5781 5782 5780 5778 5775 5773 5769 5765 5761 5757 5754 5751 5749 5746 5743 5740 5737 5734 5731 5728 5726 5723 5720 5718
5747 5743 5745 5764 5782 5788 5779 5763 5780 5781 5779 5780 5781 5772 5772 5778 5778 5777 5777 5776 5774 5774 5772 5770 5768 5766 5761 5757 5754 5750 5747 5745 5743 5740 5736 5733 5730 5727 5724 5721 5719 5717 5714 5712
5740 5742 5754 5767 5776 5776 5754 5757 5772 5775 5775 5774 5771 5771 5771 5771 5770 5769 5769 5768 5767 5765 5763 5761 5759 5757 5753 5749 5746 5743 5741 5738 5736 5733 5729 5727 5724 5720 5717 5715 5712 5710 5707 5705
5737 5734 5741 5761 5765 5758 5756 5765 5768 5769 5769 5768 5766 5766 5765 5763 5762 5761 5760 5760 5759 5757 5754 5753 5751 5747 5744 5740 5738 5736 5733 5730 5728 5725 5724 5721 5716 5713 5710 5708 5705 5702 5699 5697
5737 5739 5746 5755 5755 5757 5760 5759 5760 5762 5763 5762 5759 5756 5755 5754 5754 5753 5752 5751 5750 5748 5745 5743 5741 5738 5734 5731 5730 5728 5725 5722 5719 5717 5715 5713 5709 5706 5703 5701 5701 5698 5694 5691
5725 5733 5740 5745 5749 5751 5753 5753 5756 5757 5757 5756 5752 5750 5747 5745 5745 5743 5742 5741 5741 5738 5735 5732 5731 5729 5726 5723 5722 5719 5715 5713 5711 5708 5706 5704 5701 5700 5696 5694 5691 5688 5685 5683
5714 5722 5728 5733 5737 5739 5743 5746 5747 5748 5750 5748 5746 5743 5740 5737 5735 5734 5733 5733 5732 5729 5726 5724 5722 5720 5718 5715 5712 5709 5706 5703 5701 5700 5698 5694 5691 5689 5687 5684 5681 5677 5675 5673
5710 5716 5718 5720 5727 5731 5731 5734 5736 5737 5738 5739 5739 5735 5733 5730 5728 5726 5724 5723 5721 5719 5717 5715 5714 5711 5709 5707 5704 5700 5698 5695 5694 5692 5688 5686 5683 5679 5674 5672 5668 5665 5661 5659
5708 5714 5715 5716 5720 5723 5723 5726 5728 5729 5729 5728 5729 5728 5725 5722 5719 5717 5715 5713 5711 5709 5708 5706 5704 5702 5700 5699 5696 5692 5689 5687 5686 5683 5680 5677 5674 5672 5668 5662 5658 5655 5653 5650
5702 5703 5702 5705 5708 5712 5714 5717 5719 5720 5720 5719 5719 5718 5715 5712 5710 5707 5705 5704 5703 5701 5699 5697 5694 5692 5691 5689 5687 5684 5682 5679 5676 5675 5672 5670 5668 5665 5662 5658 5655 5653 5647 5642
5694 5697 5697 5699 5700 5702 5705 5706 5706 5706 5707 5708 5708 5706 5704 5701 5699 5697 5696 5696 5694 5691 5689 5687 5684 5682 5681 5679 5677 5674 5673 5671 5668 5666 5665 5663 5660 5658 5655 5652 5649 5647 5644 5638
5686 5689 5690 5689 5689 5691 5693 5694 5695 5695 5697 5697 5697 5696 5694 5692 5690 5688 5687 5686 5683 5681 5678 5676 5674 5673 5672 5670 5667 5665 5663 5659 5657 5657 5656 5654 5653 5650 5647 5645 5642 5639 5637 5633
5677 5678 5679 5680 5681 5683 5684 5686 5686 5686 5687 5687 5686 5685 5684 5682 5680 5678 5677 5676 5674 5672 5670 5667 5665 5664 5663 5661 5659 5658 5657 5653 5648 5649 5648 5645 5643 5641 5639 5637 5635 5632 5630 5626
5675 5676 5676 5675 5676 5676 5676 5678 5678 5678 5677 5677 5677 5676 5675 5673 5671 5669 5668 5667 5664 5662 5661 5659 5656 5655 5654 5652 5650 5649 5648 5646 5642 5641 5639 5635 5633 5631 5630 5629 5627 5624 5622 5620
5668 5668 5668 5669 5669 5669 5669 5670 5670 5670 5669 5668 5668 5667 5666 5664 5662 5661 5659 5657 5655 5653 5651 5650 5645 5646 5645 5643 5640 5640 5639 5637 5634 5632 5630 5625 5624 5623 5622 5620 5618 5616 5614 5613
5659 5660 5661 5661 5662 5662 5662 5663 5663 5663 5662 5661 5660 5658 5656 5655 5654 5652 5650 5648 5647 5646 5643 5640 5639 5638 5636 5634 5630 5632 5630 5628 5626 5623 5621 5619 5617 5615 5613 5611 5609 5607 5606 5604
5650 5651 5652 5653 5653 5654 5655 5655 5655 5654 5654 5653 5651 5649 5647 5646 5645 5643 5641 5639 5637 5635 5633 5629 5629 5628 5627 5624 5621 5623 5622 5620 5618 5616 5614 5612 5609 5607 5605 5603 5601 5599 5597 5594
5642 5643 5644 5645 5645 5645 5647 5648 5648 5647 5645 5644 5643 5641 5639 5637 5636 5634 5633 5631 5629 5624 5625 5624 5623 5618 5616 5613 5616 5616 5615 5614 5612 5610 5607 5604 5601 5599 5596 5594 5592 5590 5588 5586
5635 5636 5636 5636 5637 5638 5639 5640 5640 5640 5638 5637 5636 5635 5634 5632 5632 5629 5626 5625 5623 5617 5618 5617 5611 5607 5604 5608 5610 5609 5607 5606 5605 5603 5601 5597 5594 5592 5589 5585 5583 5581 5579 5577
5628 5628 5629 5631 5631 5631 5631 5632 5633 5633 5632 5632 5631 5629 5628 5627 5625 5624 5622 5615 5612 5610 5612 5607 5602 5600 5598 5603 5603 5602 5601 5599 5597 5595 5593 5590 5587 5583 5580 5578 5575 5573 5570 5567
5622 5623 5624 5624 5625 5626 5626 5626 5626 5625 5627 5627 5626 5624 5623 5622 5619 5617 5614 5611 5607 5605 5606 5601 5596 5594 5596 5597 5596 5595 5594 5592 5589 5587 5584 5581 5578 5576 5572 5569 5566 5564 5561 5559
5616 5617 5619 5619 5621 5621 5622 5622 5623 5622 5622 5621 5620 5618 5617 5615 5613 5610 5607 5606 5603 5599 5599 5598 5595 5591 5593 5592 5590 5589 5587 5584 5582 5579 5576 5573 5570 5567 5564 5561 5558 5556 5554 5552
5612 5613 5614 5615 5616 5618 5619 5618 5618 5617 5617 5615 5614 5612 5610 5608 5606 5604 5602 5600 5599 5596 5595 5594 5592 5590 5589 5587 5585 5582 5580 5578 5575 5571 5568 5565 5562 5559 5556 5553 5550 5548 5545 5543